Flag for U.S.A. Weather past 2 weeks in South Bend, Indiana, U.S.A.

Now
45 °F

Clear.


Feels Like: 42 °F
Forecast: 48 / 68 °F
Wind: 6 mph from North

Location: Michiana Regional Airport

Current Time: May 22, 2015 at 7:13:21 AM

Latest Report: May 22, 2015 at 5:54 AM


Visibility: 10 mi

Pressure: 30.10 "Hg

Humidity: 80%

Dew point: 39 °F

Location of South BendLocation

Historic Weather in South Bend — Graph

°F

South Bend temperature yesterday

Maximum temperature yesterday: 65 °F (at 5:54 PM)
Minimum temperature yesterday: 44 °F (at 12:54 AM)
Average temperature yesterday: 53 °F

Past Weeks' High & Low Weather Summary

 TemperatureHumidityPressure
High84 °F (May 7, 1:54 PM)97% (May 9, 6:54 AM)30.47 "Hg (May 9, 6:54 AM)
Low37 °F (May 20, 1:54 AM)26% (May 21, 6:54 PM)29.79 "Hg (May 11, 5:54 PM)
Average61 °F71%30.08 "Hg
* Reported May 7 5:54 AM — May 22 5:54 AM, South Bend, Weather by CustomWeather, © 2015

Note: Actual official high and low records may vary slightly from our data, if they occured in-between our weather recording intervals... More about our weather records

Advertising

South Bend weather history for previous 24 hours

 ConditionsComfort  
Time TempWeatherWind HumidityBarometerVisibility
5:54 AM
Fri, May 22
45 °FClear.6 mph80%30.10 "Hg10 mi
4:54 AM50 °FClear.6 mph68%30.07 "Hg10 mi
3:54 AM53 °FOvercast.6 mph61%30.07 "Hg10 mi
2:54 AM54 °FOvercast.3 mph57%30.07 "Hg10 mi
1:54 AM55 °FPassing clouds.10 mph47%30.03 "Hg10 mi
12:54 AM54 °FPassing clouds.9 mph49%30.04 "Hg10 mi
11:54 PM
Thu, May 21
53 °FClear.9 mph52%30.05 "Hg10 mi
10:54 PM54 °FClear.7 mph49%30.05 "Hg10 mi
9:54 PM56 °FSunny.5 mph46%30.04 "Hg10 mi
8:54 PM59 °FSunny.7 mph38%30.03 "Hg10 mi
7:54 PM63 °FSunny.9 mph31%30.03 "Hg10 mi
6:54 PM65 °FSunny.13 mph26%30.04 "Hg10 mi
5:54 PM65 °FSunny.15 mph27%30.05 "Hg10 mi
4:54 PM64 °FSunny.17 mph30%30.06 "Hg10 mi
3:54 PM63 °FSunny.16 mph31%30.06 "Hg10 mi
2:54 PM61 °FSunny.8 mph39%30.07 "Hg10 mi
1:54 PM58 °FScattered clouds.10 mph51%30.07 "Hg10 mi
12:54 PM55 °FPassing clouds.12 mph62%30.09 "Hg10 mi
11:54 AM53 °FOvercast.10 mph66%30.11 "Hg10 mi
10:54 AM50 °FOvercast.13 mph74%30.11 "Hg10 mi
9:54 AM49 °FOvercast.12 mph77%30.12 "Hg10 mi
8:54 AM48 °FOvercast.8 mph80%30.11 "Hg10 mi
7:54 AM45 °FOvercast.5 mph82%30.11 "Hg10 mi
Weather by CustomWeather, © 2015

See weather overviewHow to use our weather pages